To NAV CANADA Home Page Login to a new session Search on AWWS site Feedback and Comments Disclaimer Vers la page française équivalente Tips FAQ What's new on the site To the Forecasts and Observations / NOTAM section To "File a Flight Plan" website Publications and other links Update of the User's profile FIC Telephone Numbers My Weather Data Folder Route Weather Data Regional Weather Data Local Weather Data To the Forecasts and Observations / NOTAM section
Request Generated 09/28/2016 at 15:17:57 UTC . Weather information available at that time is displayed.

METAR/TAF

MAKKOVIK/NL    

METAR CYFT 281500Z 27015G22KT 15SM SCT240 11/03 A3034 RMK CI3 SLP279=
METAR CYFT 281400Z 26016KT 15SM FEW240 10/03 A3033 RMK CI1 TR CI
SLP275=
METAR CYFT 281300Z 25016G22KT 15SM FEW240 08/03 A3032 RMK CI1 TR CI
SLP274=

CYFT - No TAF is issued for this station

Your time UTC time
Weather data provided by Environment Canada and NAV CANADA